Regional Weather Roundup
Issued by NWS Burlington, VT

Home | Current Version | Previous Version | Text Only | Print | Product List | Glossary On
Versions: 1 2 3 4 5 6 7 8 9 10 11 12 13 14 15 16 17 18 19 20 21 22 23 24 25 26 27 28 29 30 31 32 33 34 35 36 37 38 39 40 41 42 43 44 45 46 47 48 49 50
000
ASUS41 KBTV 272230
RWRBTV
VERMONT REGIONAL WEATHER ROUNDUP
NATIONAL WEATHER SERVICE BURLINGTON VT
500 PM EST FRI FEB 27 2015

NOTE: "FAIR" INDICATES FEW OR NO CLOUDS BELOW 12,000 FEET WITH NO
SIGNIFICANT WEATHER AND/OR OBSTRUCTIONS TO VISIBILITY.

* THESE REPORTS ARE NOT UNDER NWS QUALITY CONTROL AND/OR DO NOT
  REPORT WEATHER SUCH AS PRECIPITATION AND FOG.

VTZ001>019-272300-
_____VERMONT_____


CITY           SKY/WX    TMP DP  RH WIND       PRES   REMARKS
BURLINGTON     PTCLDY    18  -5  36 NW5       30.39R
MONTPELIER     CLEAR     14  -8  37 N5        30.35R
MORRISVILLE    CLEAR     16  -6  37 N6        30.36R
ST. JOHNSBURY*   N/A     17  -9  31 MISG      30.33R
LYNDONVILLE*   FAIR      14 -13  29 SW6       30.32S
MIDDLEBURY*    FAIR      19 -10  28 CALM      30.37S
RUTLAND*       CLEAR     18 -11  27 CALM      30.34S
SPRINGFIELD    CLEAR     20  -8  28 NW5       30.37R
HIGHGATE*      FAIR      13  -6  41 N5        30.41S
NEWPORT*       FAIR      12 -10  36 W7        30.34R
BENNINGTON     CLEAR     18  -1  43 W8        30.37R
GALLUP MILLS*    N/A     10 N/A N/A MISG        N/A
MT. MANSFIELD*   N/A      3 N/A N/A CALM        N/A

_____LAKE CHAMPLAIN_____


CITY           SKY/WX    TMP DP  RH WIND       PRES   REMARKS
BURTON ISLAND*   N/A     16  -2  45 E2          N/A
COLCHESTER RF*   N/A     18  -2  41 E6          N/A
DIAMOND ISL*     N/A     19  -2  38 SW7         N/A

$$

NYZ007-026>031-035-052-083-272300-
_____NORTHERN NEW YORK_____


CITY           SKY/WX    TMP DP  RH WIND       PRES   REMARKS
PLATTSBURGH    CLEAR     15  -6  39 CALM      30.41R
SARANAC LAKE   CLEAR     13  -9  37 W9        30.27R
MASSENA        CLEAR     14  -6  40 SW10      30.45R WCI   1
OGDENSBURG*    CLEAR     14  -2  48 SW10      30.46R WCI   1
POTSDAM*       CLEAR     12  -2  52 SW14      30.44R WCI  -3
STARK FALLS*     N/A     10 N/A N/A W12         N/A  WCI  -4
WATERTOWN      LGT SNOW  15   8  73 SW16G25   30.49S WCI  -1
FT DRUM        LGT SNOW  12   7  79 W9        30.45R
ALBANY         PTCLDY    20   0  41 W16       30.43R WCI   6
GLENS FALLS    CLEAR     21   3  45 SE12      30.39R WCI   9

$$
NHZ002-005-011-272300-
_____NEW HAMPSHIRE_____


CITY           SKY/WX    TMP DP  RH WIND       PRES   REMARKS
LEBANON        CLEAR     21  -6  30 NW9       30.34R
KEENE          CLEAR     23  -6  28 NW5       30.36R
MT WASHINGTON  PTCLDY    -8 -13  77 NW38        N/A  WCI -39
PLYMOUTH       FAIR      19  -3  38 W5        30.35R
WHITEFIELD     CLEAR     16 -10  31 W9        30.30R

$$

_____REGIONAL QUEBEC LOCATIONS_____


CITY           SKY/WX    TMP DP  RH WIND       PRES   REMARKS
MONTREAL       PTCLDY    14  -6  41 SW16G22   30.42R WCI  -2
QUEBEC CITY    PTCLDY    10  -6  48 W15       30.31R WCI  -6
SHERBROOKE     CLEAR     10  -8  44 W9        30.33R

_____REGIONAL ONTARIO LOCATIONS_____


CITY           SKY/WX    TMP DP  RH WIND       PRES   REMARKS
OTTAWA         CLEAR     16  -6  38 S8        30.39R

______KEY______
VSB  - VISIBILITY IN MILES
WCI  - WIND CHILL INDEX
HX   - HEAT INDEX
$$



USA.gov is the U.S. government's official web portal to all federal, state and local government web resources and services.